Location: Ladrillo (historical)
(32.8195°N, 117.2231°W)
Time: 20:56:47
(UTC+00:00)

ATLAS CENTAUR R/B - Pass Details

Date: 29 October 2020
Orbit: 478 x 667 km, 64.7° (Epoch: 22 November)

Event Time Altitude Azimuth Distance (km) Brightness Sun altitude
Rises 12:38:36 0° 199° (SSW) 2,713 4.7 -18.6°
Reaches altitude 10° 12:40:52 10° 195° (SSW) 1,791 3.8 -18.1°
Maximum altitude 12:44:48 58° 116° (ESE) 608 1.8 -17.3°
Drops below altitude 10° 12:48:32 10° 37° (NE) 1,708 4.2 -16.5°
Sets 12:50:40 0° 33° (NNE) 2,574 5.1 -16.1°
